User: anonymous   Login
Location: Cicognara
(44.9500°N, 10.4667°E)
Time: 00:17:11
(UTC+00:00)
Language:

Thor Agena Rocket - Orbit

View from above orbital plane
View from above orbital plane
View from above satellite
View from above satellite

Ground track
Ground track

The orbit data is extracted from the following two-line orbital elements,

1 00733U 64002A   21262.53336050  .00000009  00000-0  20739-4 0  9997
2 00733  98.9773 176.9769 0033457 335.3463  24.6119 14.32455067  4523
Epoch (UTC): 19 September 2021 12:48:02
Eccentricity: 0.0033457
inclination: 98.9773°
perigee height: 759 km
apogee height: 807 km
right ascension of ascending node: 176.9769°
argument of perigee: 335.3463°
revolutions per day: 14.32455067
mean anomaly at epoch: 24.6119°
orbit number at epoch: 452

The dashed part of the orbit path shows where the satellite is in the earth's shadow,  

DLR